timestamp,wind_dir_avg,wind_spd_avg,wind_spd_max_dir,wind_spd_gust,battery_voltage,lat,long
2024-03-18 00:04:00+00:00,266.0,3.6,263.0,3.81,12.25,47.59359,-54.27349
2024-03-18 00:14:00+00:00,259.0,4.08,255.0,4.33,12.17,47.59359,-54.27349
2024-03-18 00:24:00+00:00,277.0,3.67,277.0,3.89,12.17,47.59359,-54.27349
2024-03-18 00:34:00+00:00,101.0,1.18,257.0,2.7,12.17,47.59359,-54.27349
2024-03-18 00:44:00+00:00,163.0,1.44,117.0,3.08,12.17,47.59359,-54.27349
2024-03-18 00:54:00+00:00,171.0,1.16,242.0,2.38,12.17,47.59359,-54.27349
2024-03-18 01:04:00+00:00,133.0,3.06,133.0,3.29,12.17,47.59359,-54.27349
2024-03-18 01:14:00+00:00,142.0,3.63,143.0,4.09,12.17,47.59359,-54.27349
2024-03-18 01:24:00+00:00,139.0,3.37,138.0,3.7,12.17,47.59359,-54.27349
2024-03-18 01:34:00+00:00,138.0,2.26,145.0,2.43,12.17,47.59359,-54.27349
2024-03-18 01:44:00+00:00,138.0,2.62,140.0,2.86,12.17,47.59359,-54.27349
2024-03-18 01:54:00+00:00,140.0,2.74,144.0,3.01,12.17,47.59359,-54.27349
2024-03-18 02:04:00+00:00,114.0,1.75,110.0,1.98,12.17,47.59359,-54.27349
2024-03-18 02:14:00+00:00,109.0,2.15,106.0,2.48,12.17,47.59359,-54.27349
2024-03-18 02:24:00+00:00,105.0,2.24,103.0,2.69,12.17,47.59359,-54.27349
2024-03-18 02:34:00+00:00,107.0,2.39,106.0,2.56,12.17,47.59359,-54.27349
2024-03-18 02:44:00+00:00,119.0,1.95,117.0,2.12,12.17,47.59359,-54.27349
2024-03-18 02:54:00+00:00,118.0,2.23,116.0,2.42,12.17,47.59359,-54.27349
2024-03-18 03:04:00+00:00,122.0,1.97,117.0,2.71,12.17,47.59359,-54.27349
2024-03-18 03:14:00+00:00,105.0,1.81,107.0,1.97,12.09,47.59359,-54.27349
2024-03-18 03:24:00+00:00,113.0,1.64,120.0,1.95,12.09,47.59359,-54.27349
2024-03-18 03:34:00+00:00,140.0,1.98,145.0,2.44,12.09,47.59359,-54.27349
2024-03-18 03:44:00+00:00,142.0,2.39,137.0,2.72,12.09,47.59359,-54.27349
2024-03-18 03:54:00+00:00,232.0,3.83,233.0,4.25,12.09,47.59359,-54.27349
2024-03-18 04:04:00+00:00,247.0,2.45,240.0,3.67,12.09,47.59359,-54.27349
2024-03-18 04:14:01+00:00,148.0,3.51,150.0,3.97,12.09,47.59359,-54.27349
2024-03-18 04:24:01+00:00,162.0,1.9,240.0,2.96,12.09,47.59359,-54.27349
2024-03-18 04:34:01+00:00,126.0,2.16,134.0,2.66,12.09,47.59359,-54.27349
2024-03-18 04:44:01+00:00,125.0,1.9,120.0,2.61,12.09,47.59359,-54.27349
2024-03-18 04:54:01+00:00,157.0,2.85,142.0,3.74,12.09,47.59359,-54.27349
2024-03-18 05:04:01+00:00,189.0,2.35,146.0,3.11,12.09,47.59359,-54.27349
2024-03-18 05:14:00+00:00,162.0,2.26,135.0,3.19,12.09,47.59359,-54.27349
2024-03-18 05:24:00+00:00,164.0,2.03,153.0,2.71,12.09,47.59359,-54.27349
2024-03-18 05:34:00+00:00,181.0,3.6,161.0,4.09,12.09,47.59359,-54.27349
2024-03-18 05:44:00+00:00,168.0,2.52,173.0,2.85,12.09,47.59359,-54.27349
2024-03-18 05:54:00+00:00,176.0,4.36,177.0,4.59,12.09,47.59359,-54.27349
2024-03-18 06:04:00+00:00,200.0,4.36,201.0,5.12,12.09,47.59359,-54.27349
2024-03-18 06:14:00+00:00,206.0,2.38,228.0,3.24,12.09,47.59359,-54.27349
2024-03-18 06:24:00+00:00,180.0,2.61,193.0,3.05,12.09,47.59359,-54.27349
2024-03-18 06:34:00+00:00,138.0,1.32,140.0,1.74,12.09,47.59359,-54.27349
2024-03-18 06:44:00+00:00,210.0,2.04,226.0,2.82,12.09,47.59359,-54.27349
2024-03-18 06:54:00+00:00,174.0,3.07,160.0,3.44,12.09,47.59359,-54.27349
2024-03-18 07:04:00+00:00,158.0,2.61,158.0,3.02,12.09,47.59359,-54.27349
2024-03-18 07:14:00+00:00,178.0,2.08,187.0,2.43,12.01,47.59359,-54.27349
2024-03-18 07:24:00+00:00,165.0,3.02,164.0,3.89,12.01,47.59359,-54.27349
2024-03-18 07:34:00+00:00,147.0,3.05,152.0,3.55,12.01,47.59359,-54.27349
2024-03-18 07:44:00+00:00,156.0,1.92,173.0,2.6,12.01,47.59359,-54.27349
2024-03-18 07:54:00+00:00,147.0,2.9,132.0,3.61,12.01,47.59359,-54.27349
2024-03-18 08:04:00+00:00,163.0,3.46,162.0,3.82,12.01,47.59359,-54.27349
2024-03-18 08:14:01+00:00,205.0,2.29,207.0,2.46,12.01,47.59359,-54.27349
2024-03-18 08:24:01+00:00,168.0,3.65,173.0,4.4,12.01,47.59359,-54.27349
2024-03-18 08:34:01+00:00,169.0,4.15,173.0,4.88,12.01,47.59359,-54.27349
2024-03-18 08:44:01+00:00,167.0,3.09,169.0,3.56,12.01,47.59359,-54.27349
2024-03-18 08:54:01+00:00,180.0,4.17,190.0,4.6,12.01,47.59359,-54.27349
2024-03-18 09:04:01+00:00,169.0,5.45,151.0,6.27,12.01,47.59359,-54.27349
2024-03-18 09:14:01+00:00,182.0,4.54,191.0,5.21,12.01,47.59359,-54.27349
2024-03-18 09:24:01+00:00,174.0,3.66,164.0,4.73,12.01,47.59359,-54.27349
2024-03-18 09:34:01+00:00,174.0,2.44,185.0,3.39,12.01,47.59359,-54.27349
2024-03-18 09:44:01+00:00,276.0,0.26,126.0,4.27,12.01,47.59359,-54.27349
2024-03-18 09:54:01+00:00,139.0,4.36,140.0,4.74,12.01,47.59359,-54.27349
2024-03-18 10:04:01+00:00,127.0,8.34,125.0,10.5,12.01,47.59359,-54.27349
2024-03-18 10:14:00+00:00,126.0,8.87,122.0,10.26,11.93,47.59359,-54.27349
2024-03-18 10:24:00+00:00,114.0,8.7,114.0,9.66,11.93,47.59359,-54.27349
2024-03-18 10:34:00+00:00,155.0,4.53,142.0,5.36,11.93,47.59359,-54.27349
2024-03-18 10:44:00+00:00,138.0,5.6,113.0,9.41,11.93,47.59359,-54.27349
2024-03-18 10:54:00+00:00,153.0,4.87,147.0,5.93,11.93,47.59359,-54.27349
2024-03-18 11:04:00+00:00,146.0,5.09,145.0,6.23,11.93,47.59359,-54.27349
2024-03-18 11:14:00+00:00,162.0,3.12,134.0,4.42,12.01,47.59359,-54.27349
2024-03-18 11:24:00+00:00,183.0,6.39,185.0,7.62,12.01,47.59359,-54.27349
2024-03-18 11:34:00+00:00,169.0,8.41,156.0,10.9,12.01,47.59359,-54.27349
2024-03-18 11:44:00+00:00,136.0,9.59,132.0,11.61,12.01,47.59359,-54.27349
2024-03-18 11:54:00+00:00,149.0,8.8,133.0,11.62,12.01,47.59359,-54.27349
2024-03-18 12:04:00+00:00,137.0,10.89,140.0,12.55,12.01,47.59359,-54.27349
2024-03-18 12:14:00+00:00,132.0,9.48,127.0,11.23,12.25,47.59359,-54.27349
2024-03-18 12:24:00+00:00,131.0,8.79,126.0,10.13,12.25,47.59359,-54.27349
2024-03-18 12:34:00+00:00,129.0,8.37,125.0,10.1,12.25,47.59359,-54.27349
2024-03-18 12:44:00+00:00,128.0,9.24,135.0,10.95,12.25,47.59359,-54.27349
2024-03-18 12:54:00+00:00,118.0,9.96,119.0,10.78,12.25,47.59359,-54.27349
2024-03-18 13:04:00+00:00,127.0,9.26,126.0,10.98,12.25,47.59359,-54.27349
2024-03-18 13:14:00+00:00,120.0,9.1,120.0,10.47,12.17,47.59359,-54.27349
2024-03-18 13:24:00+00:00,125.0,8.95,124.0,12.38,12.17,47.59359,-54.27349
2024-03-18 13:34:00+00:00,132.0,7.92,115.0,12.67,12.17,47.59359,-54.27349
2024-03-18 13:44:00+00:00,118.0,7.71,115.0,9.38,12.17,47.59359,-54.27349
2024-03-18 13:54:00+00:00,114.0,8.39,115.0,9.71,12.17,47.59359,-54.27349
2024-03-18 14:04:00+00:00,120.0,8.72,123.0,10.51,12.17,47.59359,-54.27349
2024-03-18 14:14:00+00:00,138.0,8.75,131.0,11.61,12.89,47.59359,-54.27349
2024-03-18 14:24:00+00:00,123.0,9.43,125.0,10.87,12.89,47.59359,-54.27349
2024-03-18 14:34:00+00:00,161.0,5.37,149.0,6.13,12.89,47.59359,-54.27349
2024-03-18 14:44:00+00:00,137.0,12.03,133.0,12.96,12.89,47.59359,-54.27349
2024-03-18 14:54:00+00:00,140.0,11.99,144.0,14.1,12.89,47.59359,-54.27349
2024-03-18 15:04:00+00:00,132.0,10.74,133.0,12.2,12.89,47.59359,-54.27349
2024-03-18 15:14:00+00:00,135.0,11.49,133.0,12.51,13.44,47.59359,-54.27349
2024-03-18 15:24:00+00:00,136.0,9.82,130.0,11.91,13.44,47.59359,-54.27349
2024-03-18 15:34:00+00:00,139.0,12.75,142.0,14.61,13.44,47.59359,-54.27349
2024-03-18 15:44:00+00:00,176.0,9.45,154.0,10.87,13.44,47.59359,-54.27349
2024-03-18 15:54:00+00:00,142.0,12.48,143.0,14.16,13.44,47.59359,-54.27349
2024-03-18 16:04:00+00:00,136.0,12.1,136.0,12.94,13.44,47.59359,-54.27349
2024-03-18 16:14:00+00:00,182.0,7.68,177.0,8.82,13.53,47.59359,-54.27349
2024-03-18 16:24:00+00:00,183.0,6.76,181.0,7.64,13.53,47.59359,-54.27349
2024-03-18 16:34:00+00:00,187.0,3.1,188.0,3.11,13.53,47.59359,-54.27349
2024-03-18 16:44:00+00:00,152.0,4.45,119.0,10.29,13.53,47.59359,-54.27349
2024-03-18 16:54:00+00:00,147.0,7.85,129.0,11.04,13.53,47.59359,-54.27349
2024-03-18 17:04:00+00:00,171.0,6.75,155.0,8.81,13.53,47.59359,-54.27349
2024-03-18 17:14:00+00:00,182.0,5.22,149.0,6.37,13.53,47.59359,-54.27349
2024-03-18 17:24:00+00:00,188.0,5.14,197.0,6.59,13.53,47.59359,-54.27349
2024-03-18 17:34:00+00:00,178.0,5.8,177.0,7.97,13.53,47.59359,-54.27349
2024-03-18 17:44:00+00:00,173.0,5.63,165.0,7.67,13.53,47.59359,-54.27349
2024-03-18 17:54:00+00:00,179.0,7.12,193.0,9.58,13.53,47.59359,-54.27349
2024-03-18 18:04:00+00:00,181.0,7.96,161.0,9.35,13.53,47.59359,-54.27349
2024-03-18 18:14:00+00:00,182.0,9.5,181.0,11.91,13.44,47.59359,-54.27349
2024-03-18 18:24:00+00:00,182.0,10.75,178.0,14.15,13.44,47.59359,-54.27349
2024-03-18 18:34:00+00:00,180.0,10.94,176.0,14.38,13.44,47.59359,-54.27349
2024-03-18 18:44:00+00:00,188.0,10.24,191.0,10.77,13.44,47.59359,-54.27349
2024-03-18 18:54:00+00:00,182.0,9.38,175.0,10.39,13.44,47.59359,-54.27349
2024-03-18 19:04:00+00:00,172.0,11.58,171.0,13.46,13.44,47.59359,-54.27349
2024-03-18 19:14:00+00:00,176.0,12.32,171.0,14.22,13.44,47.59359,-54.27349
2024-03-18 19:24:00+00:00,176.0,10.54,178.0,11.63,13.44,47.59359,-54.27349
2024-03-18 19:34:00+00:00,173.0,10.62,171.0,15.08,13.44,47.59359,-54.27349
2024-03-18 19:44:00+00:00,169.0,10.22,165.0,10.71,13.44,47.59359,-54.27349
2024-03-18 19:54:00+00:00,193.0,11.51,197.0,12.81,13.44,47.59359,-54.27349
2024-03-18 20:04:00+00:00,190.0,10.14,197.0,11.38,13.44,47.59359,-54.27349
2024-03-18 20:14:00+00:00,202.0,10.82,221.0,13.69,13.37,47.59359,-54.27349
2024-03-18 20:24:00+00:00,218.0,13.95,217.0,15.61,13.37,47.59359,-54.27349
2024-03-18 20:34:00+00:00,221.0,13.09,222.0,14.5,13.37,47.59359,-54.27349
2024-03-18 20:44:00+00:00,224.0,12.79,224.0,13.77,13.37,47.59359,-54.27349
2024-03-18 20:54:00+00:00,225.0,12.79,223.0,13.88,13.37,47.59359,-54.27349
2024-03-18 21:04:00+00:00,227.0,10.95,229.0,12.4,13.37,47.59359,-54.27349
2024-03-18 21:14:00+00:00,229.0,10.45,229.0,11.88,13.05,47.59359,-54.27349
2024-03-18 21:24:00+00:00,233.0,9.02,235.0,11.56,13.05,47.59359,-54.27349
2024-03-18 21:34:00+00:00,234.0,10.5,233.0,12.45,13.05,47.59359,-54.27349
2024-03-18 21:44:00+00:00,233.0,10.93,233.0,12.03,13.05,47.59359,-54.27349
2024-03-18 21:54:00+00:00,231.0,10.34,233.0,11.73,13.05,47.59359,-54.27349
2024-03-18 22:04:00+00:00,235.0,11.05,232.0,11.92,13.05,47.59359,-54.27349
2024-03-18 22:14:00+00:00,237.0,10.28,232.0,11.7,12.41,47.59359,-54.27349
2024-03-18 22:24:00+00:00,235.0,10.64,232.0,12.05,12.41,47.59359,-54.27349
2024-03-18 22:34:00+00:00,237.0,10.7,233.0,11.71,12.41,47.59359,-54.27349
2024-03-18 22:44:00+00:00,239.0,9.97,238.0,11.6,12.41,47.59359,-54.27349
2024-03-18 22:54:00+00:00,244.0,10.37,241.0,11.21,12.41,47.59359,-54.27349
2024-03-18 23:04:00+00:00,240.0,10.93,240.0,11.94,12.41,47.59359,-54.27349
2024-03-18 23:14:00+00:00,239.0,11.1,232.0,11.89,12.25,47.59359,-54.27349
2024-03-18 23:24:00+00:00,237.0,10.24,238.0,11.79,12.25,47.59359,-54.27349
2024-03-18 23:34:00+00:00,238.0,10.41,236.0,11.83,12.25,47.59359,-54.27349
2024-03-18 23:44:00+00:00,211.0,4.78,215.0,7.22,12.25,47.59359,-54.27349
2024-03-18 23:54:00+00:00,197.0,8.31,203.0,10.22,12.25,47.59359,-54.27349
